Location: Unspecified
(0.0000°N, 0.0000°E)
Time: 19:44:36
(UTC+00:00)

Courier 1B - All Passes

Search period start: 29 July 2016 00:00
Search period end: 08 August 2016 00:00
Orbit: 962 x 1209 km, 28.3° (Epoch: 28 July)

Date Brightness Start Highest point End Pass type
(mag) Time Alt. Az. Time Alt. Az. Time Alt. Az.
29 Jul - 00:11:41 10° WSW 00:16:03 19° SSW 00:20:29 10° SSE night (unlit)
29 Jul - 07:53:30 10° SSW 08:00:04 32° SSE 08:06:49 10° E daylight
29 Jul - 09:46:49 10° WSW 09:54:34 83° NNW 10:02:28 10° ENE daylight
29 Jul - 11:42:49 10° W 11:49:13 27° NNW 11:55:37 10° NNE daylight
29 Jul - 19:28:25 10° NNW 19:33:47 24° NNE 19:38:58 10° ENE visible
29 Jul - 21:21:23 10° WNW 21:28:03 85° NNE 21:34:33 10° ESE visible
29 Jul - 23:16:54 10° W 23:22:10 26° SSW 23:27:27 10° SSE night (unlit)
30 Jul - 07:00:21 10° SSW 07:06:00 23° SSE 07:11:52 10° ESE daylight
30 Jul - 08:52:59 10° SW 09:00:34 74° SSE 09:08:25 10° ENE daylight
30 Jul - 10:48:07 10° W 10:55:07 36° NNW 11:02:11 10° NE daylight
30 Jul - 12:47:27 10° NW 12:50:26 12° NNW 12:53:24 10° N daylight
30 Jul - 18:35:13 10° NNW 18:39:47 18° NNE 18:44:14 10° ENE visible
30 Jul - 20:27:37 10° NW 20:34:19 61° NNE 20:40:45 10° ESE visible
30 Jul - 22:22:25 10° W 22:28:22 36° SSW 22:34:15 10° SE visible
31 Jul - 00:22:21 10° SSW 00:23:06 10° SSW 00:23:51 10° SSW night (unlit)
31 Jul - 06:07:27 10° SSW 06:11:54 17° SSE 06:16:30 10° ESE daylight
31 Jul - 07:59:21 10° SW 08:06:37 55° SSE 08:14:11 10° ENE daylight
31 Jul - 09:53:43 10° WSW 10:01:03 48° NNW 10:08:35 10° NE daylight
31 Jul - 11:51:29 10° WNW 11:56:07 16° NNW 12:00:44 10° NNE daylight
31 Jul - 17:42:14 10° N 17:45:40 14° NNE 17:49:02 10° NE daylight
31 Jul - 19:33:59 10° NW 19:40:32 43° NNE 19:46:46 10° E visible
31 Jul - 21:28:08 10° WNW 21:34:37 51° SSW 21:40:54 10° SE visible
31 Jul - 23:25:42 10° SW 23:29:03 14° SSW 23:32:23 10° S night (unlit)
01 Aug - 05:15:10 10° S 05:17:46 12° SSE 05:20:24 10° SE visible
01 Aug - 07:05:56 10° SW 07:12:39 40° SSE 07:19:42 10° E daylight
01 Aug - 08:59:34 10° WSW 09:07:03 65° NNW 09:14:49 10° NE daylight
01 Aug - 10:56:11 10° WNW 11:01:52 22° NNW 11:07:37 10° NNE daylight
01 Aug - 16:49:57 10° N 16:51:25 11° NNE 16:52:53 10° NNE daylight
01 Aug - 18:40:26 10° NW 18:46:40 32° NNE 18:52:34 10° E visible
01 Aug - 20:34:02 10° WNW 20:40:53 73° SSW 20:47:24 10° SE visible
01 Aug - 22:30:27 10° WSW 22:35:06 20° SSW 22:39:42 10° SSE night (unlit)
02 Aug - 06:12:42 10° SSW 06:18:42 29° SSE 06:24:59 10° E daylight
02 Aug - 08:05:41 10° WSW 08:13:05 87° NNW 08:20:53 10° ENE daylight
02 Aug - 10:01:19 10° W 10:07:42 29° NNW 10:14:15 10° NNE daylight
02 Aug - 17:47:00 10° NNW 17:52:41 24° NNE 17:58:05 10° ENE daylight
02 Aug - 19:40:05 10° WNW 19:47:07 81° NNE 19:53:46 10° ESE visible
02 Aug - 21:35:37 10° W 21:41:14 28° SSW 21:46:42 10° SSE visible
03 Aug - 05:19:42 10° SSW 05:24:42 21° SSE 05:29:55 10° ESE visible
03 Aug - 07:11:59 10° SW 07:19:10 69° SSE 07:26:46 10° ENE daylight
03 Aug - 09:06:47 10° W 09:13:37 38° NNW 09:20:43 10° NE daylight
03 Aug - 11:05:32 10° NW 11:08:55 13° NNW 11:12:19 10° N daylight
03 Aug - 16:53:42 10° NNW 16:58:35 18° NNE 17:03:18 10° ENE daylight
03 Aug - 18:46:15 10° NW 18:53:19 58° NNE 18:59:57 10° ESE visible
03 Aug - 20:41:04 10° W 20:47:25 39° SSW 20:53:31 10° SE visible
03 Aug - 22:40:20 10° SW 22:42:04 11° SSW 22:43:48 10° S night (unlit)
04 Aug - 04:27:03 10° S 04:30:40 15° SSE 04:34:24 10° ESE visible
04 Aug - 06:18:29 10° SW 06:25:16 50° SSE 06:32:28 10° ENE daylight
04 Aug - 08:12:33 10° WSW 08:19:36 50° NNW 08:27:02 10° NE daylight
04 Aug - 10:09:54 10° WNW 10:14:36 17° NNW 10:19:24 10° NNE daylight
04 Aug - 16:00:36 10° N 16:04:23 14° NNE 16:08:04 10° NE daylight
04 Aug - 17:52:32 10° NW 17:59:26 42° NNE 18:05:56 10° E daylight
04 Aug - 19:46:44 10° WNW 19:53:39 56° SSW 20:00:11 10° SE visible
04 Aug - 21:44:10 10° WSW 21:48:03 16° SSW 21:51:50 10° S visible
05 Aug - 03:35:49 10° SSE 03:36:34 10° SSE 03:37:18 10° SSE visible
05 Aug - 05:25:11 10° SW 05:31:24 36° SSE 05:37:57 10° E visible
05 Aug - 07:18:33 10° WSW 07:25:39 69° NNW 07:33:12 10° NE daylight
05 Aug - 09:14:48 10° WNW 09:20:23 22° NNW 09:26:09 10° NNE daylight
05 Aug - 15:08:04 10° N 15:10:03 11° NNE 15:12:01 10° NNE daylight
05 Aug - 16:58:55 10° NNW 17:05:28 32° NNE 17:11:39 10° E daylight
05 Aug - 18:52:33 10° WNW 18:59:51 79° SSW 19:06:40 10° SE visible
05 Aug - 20:48:56 10° WSW 20:54:06 22° SSW 20:59:06 10° SSE visible
06 Aug - 04:32:04 10° SSW 04:37:31 25° SSE 04:43:11 10° E visible
06 Aug - 06:24:46 10° WSW 06:31:46 88° SE 06:39:14 10° ENE daylight
06 Aug - 08:20:06 10° W 08:26:16 29° NNW 08:32:43 10° NNE daylight
06 Aug - 10:20:52 10° NNW 10:21:49 10° NNW 10:22:46 10° N daylight
06 Aug - 16:05:27 10° NNW 16:11:23 24° NNE 16:17:06 10° ENE daylight
06 Aug - 17:58:33 10° NW 18:06:00 77° NNE 18:12:59 10° ESE daylight
06 Aug - 19:54:04 10° W 20:00:12 31° SSW 20:06:04 10° SSE visible
07 Aug - 03:39:11 10° SSW 03:43:35 18° SSE 03:48:04 10° ESE visible
07 Aug - 05:31:11 10° SW 05:37:56 64° SSE 05:45:07 10° ENE visible
07 Aug - 07:25:43 10° W 07:32:14 39° NNW 07:39:08 10° NE daylight
07 Aug - 09:24:06 10° NW 09:27:27 13° NNW 09:30:50 10° N daylight
07 Aug - 15:12:07 10° NNW 15:17:13 19° NNE 15:22:11 10° ENE daylight
07 Aug - 17:04:41 10° NW 17:12:06 56° NNE 17:19:05 10° ESE daylight
07 Aug - 18:59:29 10° W 19:06:21 44° SSW 19:12:51 10° SE visible
07 Aug - 20:58:11 10° SW 21:01:00 13° SSW 21:03:46 10° S visible
